Miscellaneous Local Product
Issued by NWS Hastings, NE

Home | Current Version | Previous Version | Text Only | Print | Product List | Glossary On
Versions: 1 2 3 4 5 6 7 8 9 10 11 12 13 14 15 16 17 18 19 20 21 22 23 24 25 26 27 28 29 30 31 32 33 34 35 36 37 38 39 40 41 42 43 44 45 46 47 48 49 50
000
AXUS43 KGID 290502
MISGRI

GID CWA HOURLY WEATHER ROUNDUP
NATIONAL WEATHER SERVICE HASTINGS NE
1200 AM CDT MON AUG 29 2016

NOTE: "FAIR" INDICATES FEW OR NO CLOUDS BELOW 12,000 FEET WITH NO
SIGNIFICANT WEATHER AND/OR OBSTRUCTIONS TO VISIBILITY.

...SOUTH CENTRAL NEBRASKA...

CITY           SKY/WX    TMP DP  RH WIND       PRES   REMARKS
GRAND ISLAND   MOCLDY    72  66  81 S13       30.16R
HASTINGS       TSTM      66  64  93 S16G31    30.18R
KEARNEY        PTCLDY    70  64  83 SE12      30.14R
ORD            CLEAR     70  63  78 E6        30.12R
YORK           CLOUDY    72  66  83 S10       30.15R
AURORA         CLOUDY    72  67  85 S10       30.16R
LEXINGTON      PTCLDY    67  63  86 CALM      30.13S
HOLDREGE       CLOUDY    69  63  82 S8        30.14R
HEBRON         RAIN      67  64  91 S8        30.15S

...NEBRASKA PANHANDLE...

CITY           SKY/WX    TMP DP  RH WIND       PRES   REMARKS
CHADRON        PTCLDY    69  51  52 CALM      30.09R
ALLIANCE       CLOUDY    60  55  83 SE9       30.15R
SCOTTSBLUFF    PTCLDY    63  56  78 NE7       30.15R
SIDNEY         PTCLDY    63  49  60 S9        30.19S

...WESTERN AND NORTH CENTRAL NEBRASKA...

CITY           SKY/WX    TMP DP  RH WIND       PRES   REMARKS
VALENTINE      CLEAR     73  56  54 S12       30.10R
AINSWORTH      CLEAR     69  63  81 S9        30.12S
ONEILL         CLEAR     75  68  79 SE9       30.12S
BROKEN BOW     CLEAR     61  60  97 CALM      30.13S
IMPERIAL       CLEAR     65  60  84 MISG      30.16R
NORTH PLATTE   CLEAR     63  58  83 SE6       30.15R
MCCOOK         CLOUDY    69  61  75 SE6       30.14R

...EASTERN NEBRASKA...

CITY           SKY/WX    TMP DP  RH WIND       PRES   REMARKS
NORFOLK        PTCLDY    68  65  90 SE3       30.12S
SO SIOUX CITY  CLEAR     69  65  86 SE9       30.12S
TEKAMAH        CLOUDY    67  65  93 SE5       30.13R
COLUMBUS       CLOUDY    73  61  64 S7        30.13R
ALBION         CLEAR     70  67  88 SE6       30.13S
OMAHA EPPLEY   CLOUDY    73  66  78 SE3       30.14R
OFFUTT AFB     CLOUDY    70  68  91 E7        30.13R
MILLARD        MOCLDY    72  66  83 CALM      30.14R
LINCOLN        MOCLDY    72  66  81 S3        30.14R
NEBRASKA CITY  DRIZZLE   70  68  95 S6        30.13F
BEATRICE       RAIN      70  69  96 CALM      30.15S
FALLS CITY     CLOUDY    70  68  93 N5        30.13S

...NORTHERN KANSAS...

CITY           SKY/WX    TMP DP  RH WIND       PRES   REMARKS
GOODLAND       PTCLDY    68  63  84 S10       30.18R
HILL CITY      CLOUDY    70  64  81 S6        30.14S
NORTON         PTCLDY    70  59  68 S10       30.14R
SMITH CENTER   PTCLDY    72  66  83 SE9       30.15R
BELOIT         CLOUDY    70  66  88 E9        30.14R
HAYS           PTCLDY    68  57  68 SE5       30.15R
RUSSELL        MOCLDY    69  67  93 SE3       30.14R
CONCORDIA      CLOUDY    71  64  78 E5        30.15S
SALINA         CLOUDY    77  70  79 E5        30.13R
TOPEKA         MOCLDY    75  69  81 E3        30.13F



USA.gov is the U.S. government's official web portal to all federal, state and local government web resources and services.